Location: Nairn
(57.5833°N, 3.8667°W)
Time: 17:39:32
(UTC+00:00)

S-56A Canister/Altair - Pass Details

Date: 03 December 2020
Orbit: 633 x 2499 km, 38.9° (Epoch: 19 January)

Event Time Altitude Azimuth Distance (km) Brightness Sun altitude
Rises 19:06:17 0° 229° (SW) 5,837 12.7 -26.7°
Reaches altitude 10° 19:11:23 10° 218° (SW) 4,572 11.9 -27.4°
Maximum altitude 19:19:59 23° 173° (S) 3,051 10.4 -28.5°
Enters shadow 19:22:14 22° 154° (SSE) 2,991 10.2 -28.8°
Drops below altitude 10° 19:26:39 10° 124° (SE) 3,448 - -29.4°
Sets 19:29:51 0° 111° (ESE) 4,141 - -29.9°
